Location: Feigenhofen
(48.4939°N, 10.7793°E)
Time: 23:11:02
(UTC+00:00)

CZ-2D R/B - Pass Details

Date: 26 May 2022
Orbit: 791 x 845 km, 98.7° (Epoch: 24 June)

Event Time Altitude Azimuth Distance (km) Brightness Sun altitude
Rises 00:51:24 0° 16° (NNE) 3,383 7.0 -17.1°
Reaches altitude 10° 00:53:48 10° 19° (NNE) 2,438 5.9 -16.9°
Maximum altitude 00:59:12 70° 103° (ESE) 868 2.3 -16.5°
Enters shadow 01:02:29 24° 183° (S) 1,640 3.2 -16.3°
